User: anonymous   Login
Location: Unspecified
(0.0000°N, 0.0000°E)
Time: 10:35:56
(UTC+00:00)
Language:

UNAMSat - Orbit

View from above orbital plane
View from above orbital plane
View from above satellite
View from above satellite

Ground track
Ground track

The orbit data is extracted from the following two-line orbital elements,

1 24305U 96052B   19081.93019002 +.00000014 +00000-0 -18812-5 0  9990
2 24305 082.9355 236.2454 0031080 052.6433 307.7546 13.73807791129908
Epoch (UTC): 22 March 2019 22:19:28
Eccentricity: 0.0031080
inclination: 82.9355°
perigee height: 963 km
apogee height: 1009 km
right ascension of ascending node: 236.2454°
argument of perigee: 52.6433°
revolutions per day: 13.73807791
mean anomaly at epoch: 307.7546°
orbit number at epoch: 12990

The dashed part of the orbit path shows where the satellite is in the earth's shadow,  

DLR